Location: Vinland
(47.7731°N, 122.6974°W)
Time: 19:01:49
(UTC+00:00)

Vanguard 1 Rocket - Pass Details

Date: 29 March 2023
Orbit: 655 x 4220 km, 34.3° (Epoch: 05 June)

Event Time Altitude Azimuth Distance (km) Brightness Sun altitude
Rises 08:32:41 0° 258° (WSW) 8,258 12.1 -38.8°
Reaches altitude 10° 08:39:07 10° 255° (WSW) 6,920 11.6 -38.6°
Enters shadow 08:46:46 24° 246° (WSW) 5,244 10.9 -38.4°
Exits shadow 09:09:38 - 119° (ESE) 4,100 10.6 -37.5°
Sets 09:11:39 0° 114° (ESE) 4,607 11.0 -37.4°
